WESTFORD NEEDLES, 2364

Orbit data source: Space-Track

WESTFORD NEEDLES, 2364 is space debris in LEO originally from a launch on Thu, 09 May 1963 UTC launched from the Air Force Western Test Range (AFWTR). Debris objects in space refer to the collection of defunct objects orbiting the Earth. Examples of debris include non-operational satellites, rocket bodies, and fragments generated from explosions, collisions, or faulty payload assembly.

Loading next visibility...
Identifier
2364, 1963-014P
Orbit
LEO
Country
Flag of USUS
Related business
Manufacturer
Unknown
Mission
Spacecraft
Bus & Motor
Unknown
Mass
Unknown
Launch date (UTC)
1963-05-09 (63 years ago)
Launch vehicle
Unknown
Launch site
Air Force Western Test Range (AFWTR)
Object type
Payload
Rocket body
Debris
Shape & HBR
Unknown shape, 0.4 m
Radar Cross Section
Medium (>0.1 m² and <1 m²)

Expand to show TLE details & history
Last TLE update: 10 hours ago

TLE from 10 hours ago
0 WESTFORD NEEDLES
1 02364U 63014P   26035.14920419  .00000057  00000-0  20440-1 0  9998
2 02364  87.5690 293.6930 0611037 176.8175 183.6838  8.67344306984433
Epoch: 2026-02-04T03:34Z
TLE epoch observation values (Epoch: 2026-02-04T03:34:51.242Z)
Latitude
-0.00002°
Longitude
105.65956°
Altitude
4,240.749 km
Speed
5.938 km/s
True Right ascension
19h 34m 46s
True Declination
0° 00' 00"
Sunlit
Object was in daylight at epoch
Visualization orbit readout
Latitude
Unknown
Longitude
Unknown
Altitude
Unknown
Speed
Unknown
Apparent Right ascension
Unknown
Apparent Declination
Unknown
Sunlit
N/A
Visualization observer readout
Local Sidereal Time
15:45:39
Azimuth
Unknown
Elevation
Unknown
Doppler factor
Unknown
Orbital elements
Apogee altitude
4,237.272 km
Perigee altitude
3,014.694 km
Semi-major axis
10,004.12 km
Eccentricity
0.0611
Inclination
87.569°
RAAN
293.693°
Arg. of periapsis
176.8175°
True anomaly
183.26587°
Mean anomaly
183.6838°
Eccentric anomaly
183.47179°
Mean motion
2.16908 °/min
Orbital period
165.97 mins
BSTAR
0.02044

Documentation

Showing up to 5 results
|